Regional Weather Roundup
Issued by NWS Goodland, KS

Home | Current Version | Previous Version | Text Only | Print | Product List | Glossary Off
Versions: 1 2 3 4 5 6 7 8 9 10 11 12 13 14 15 16 17 18 19 20 21 22 23 24 25 26 27 28 29 30 31 32 33 34 35 36 37 38 39 40 41 42 43 44 45 46 47 48 49 50

000
ASUS43 KGLD 310659
RWRGLD

GOODLAND FORECAST AREA HOURLY WEATHER ROUNDUP
NATIONAL WEATHER SERVICE GOODLAND KS
1200 AM MST SAT JAN 31 2015

...OFFICIAL OBSERVATIONS...

CITY           SKY/WX    TMP DP  RH WIND       PRES   REMARKS
GOODLAND KS    CLOUDY    34  32  92 S16       30.05F
HILL CITY KS   FLURRIES  34  33  96 S7        30.17F
IMPERIAL NEB   CLOUDY    36  31  82 S9        30.07F
MCCOOK NEB     CLOUDY    35  33  92 S8        30.11F
AKRON CO       CLOUDY    32  29  88 W8        30.00S
BURLINGTON CO  CLOUDY    34  32  92 S12       30.02F
LIMON CO       FOG       30  30 100 CALM      30.01F VSB 1/2
$$

...UNOFFICIAL OBSERVATIONS...

CITY           SKY/WX    TMP DP  RH WIND       PRES   REMARKS
GOVE KS          N/A     34  32  92 MISG        N/A
SHARON SPRINGS   N/A     33  31  93 S14G21      N/A
KIT CARSON CO    N/A     33  31  94 MISG        N/A
YUMA CO          N/A     34  30  86 CALM        N/A
$$



USA.gov is the U.S. government's official web portal to all federal, state and local government web resources and services.